AO-07 1 07530U 74089B 21364.57234113 -.00000030 00000-0 98419-4 0 9994 2 07530 101.8832 339.0599 0012375 6.7712 104.6529 12.53652141156301 UO-11 1 14781U 84021B 21364.55962497 .00000490 00000-0 65722-4 0 9998 2 14781 97.6042 354.8698 0009121 148.2258 211.9508 14.83399063 15005 LO-19 1 20442U 90005G 21364.48163118 .00000072 00000-0 43016-4 0 9991 2 20442 98.7702 321.9976 0010921 308.7971 51.2236 14.33013779668908 HUBBLE 1 20580U 90037B 21363.99772336 .00001388 00000-0 72540-4 0 9997 2 20580 28.4687 211.0025 0002680 12.7136 135.1165 15.09915027540571 MET-2/21 1 22782U 93055A 21364.52848539 .00000047 00000-0 28967-4 0 9990 2 22782 82.5490 148.3129 0023549 101.3466 325.5874 13.83844016430642 AO-27 1 22825U 93061C 21364.55603684 .00000042 00000-0 34158-4 0 9992 2 22825 98.9050 26.8628 0008495 176.9816 183.1418 14.30137583474015 IO-26 1 22826U 93061D 21364.54979175 .00000048 00000-0 36362-4 0 9998 2 22826 98.8992 26.7479 0009250 164.6787 195.4676 14.30479114474262 FO-29 1 24278U 96046B 21364.54726764 -.00000005 00000-0 31881-4 0 9996 2 24278 98.5406 46.2904 0350323 1.6310 358.5889 13.53108985252760 NOAA-15 1 25338U 98030A 21364.54255677 .00000077 00000-0 50330-4 0 9997 2 25338 98.6635 31.1252 0011341 72.1083 288.1332 14.26079360228945 GO-32 1 25397U 98043D 21364.48244599 .00000019 00000-0 28038-4 0 9996 2 25397 98.7968 309.7133 0000679 181.4793 178.6383 14.23726504219389 ISS 1 25544U 98067A 21364.58225513 .00006501 00000-0 12261-3 0 9994 2 25544 51.6441 91.5424 0004841 342.0852 149.8473 15.49806377319031 NO-44 1 26931U 01043C 21364.55466239 .00000029 00000-0 42702-4 0 9995 2 26931 67.0509 134.3307 0006433 280.7245 79.3132 14.30652002 57241 SO-50 1 27607U 02058C 21364.61129165 .00000315 00000-0 64905-4 0 9991 2 27607 64.5555 98.4488 0064679 328.8617 30.8658 14.75861477 23456 CO-55 1 27844U 03031E 21364.60266281 .00000158 00000-0 90771-4 0 9991 2 27844 98.6800 9.8391 0009095 226.9694 133.0722 14.22364552959868 CO-57 1 27848U 03031J 21364.51387312 .00000132 00000-0 79590-4 0 9992 2 27848 98.6850 10.2993 0008817 242.2626 117.7657 14.21933983959672 RS-22 1 27939U 03042A 21364.40489295 .00000577 00000-0 11138-3 0 9992 2 27939 98.1654 140.4731 0013361 27.1818 333.0086 14.67093565976254 NOAA-18 1 28654U 05018A 21364.49984102 .00000111 00000-0 83785-4 0 9990 2 28654 98.9720 69.9178 0015176 89.7257 270.5653 14.12672102856126 CO-58 1 28895U 05043F 21364.31193381 .00000543 00000-0 11252-3 0 9995 2 28895 98.0833 133.6013 0015731 316.7529 43.2437 14.64041058862666 Falconsat-3 1 30776U 07006E 21364.07925237 .00015595 00000-0 33356-3 0 9995 2 30776 35.4341 280.5518 0004245 268.4551 91.5692 15.43953721823320 CO-65 1 32785U 08021C 21364.44725659 .00001170 00000-0 12990-3 0 9997 2 32785 97.6360 335.9693 0014412 75.5121 284.7694 14.88963154741336 AAUSAT2 1 32788U 08021F 21364.49346216 .00002688 00000-0 24369-3 0 9991 2 32788 97.5187 351.1408 0011005 337.9807 22.0940 14.96100369743160 DO-64 1 32789U 08021G 21364.56262575 .00006462 00000-0 39804-3 0 9999 2 32789 97.3585 32.3009 0011387 179.5059 180.6184 15.10257011746414 CO-66 1 32791U 08021J 21364.45425177 .00001673 00000-0 17116-3 0 9990 2 32791 97.5927 341.6720 0014066 38.7780 321.4446 14.91753990741998 RS-30 1 32953U 08025A 21364.36490061 .00000021 00000-0 80971-4 0 9994 2 32953 82.5041 289.0803 0018530 271.6128 88.2830 12.43106659617323 PRISM 1 33493U 09002B 21364.52200214 .00002787 00000-0 23952-3 0 9993 2 33493 98.2121 336.8573 0014610 0.3076 359.8151 14.98257726703676 NOAA-19 1 33591U 09005A 21364.55320002 .00000076 00000-0 66638-4 0 9994 2 33591 99.1681 29.9733 0013139 304.4348 55.5580 14.12518729664344 SRMSAT 1 37841U 11058D 21363.87503341 .00000369 00000-0 57812-4 0 9999 2 37841 19.9703 199.9245 0011814 280.9887 219.0007 14.10718538527269 HRBE 1 37855U 11061F 21364.38158907 .00005509 00000-0 26169-3 0 9990 2 37855 101.7213 29.7829 0162673 207.3970 151.8597 15.09112012555716 RS-40 1 38735U 12041C 21364.49116506 -.00000021 00000-0 -22199-3 0 9993 2 38735 82.4778 10.8541 0017605 23.4056 336.7824 12.42583504427530 ZACUBE-1 1 39417U 13066B 21364.50547943 .00001078 00000-0 13949-3 0 9998 2 39417 97.6157 338.9354 0057067 237.7874 121.7799 14.81752815438103 Delfi-N3xt 1 39428U 13066N 21364.36303772 .00001325 00000-0 21350-3 0 9994 2 39428 97.8014 301.2530 0120482 98.0229 263.4668 14.68327716433716 GOMX-1 1 39430U 13066Q 21364.37601463 .00000792 00000-0 15121-3 0 9992 2 39430 97.8158 276.2022 0149132 217.4061 141.6667 14.59795861431623 LO-74 1 39440U 13066AA 21364.46251356 .00001374 00000-0 19495-3 0 9990 2 39440 97.7040 324.4357 0078692 320.5641 38.9857 14.76467166435347 AO-73 1 39444U 13066AE 21364.50209224 .00001253 00000-0 15755-3 0 9997 2 39444 97.6049 341.3231 0056185 226.8147 132.8366 14.82706921436487 SPROUT 1 39770U 14029E 21364.27003848 .00003597 00000-0 38722-3 0 9999 2 39770 97.9310 115.6199 0007439 286.5554 73.4847 14.89096567412473 DTUSAT-2 1 40030U 14033W 21364.29757697 .00001414 00000-0 15523-3 0 9995 2 40030 97.9278 291.6025 0010401 249.0354 110.9750 14.89261071408463 EO-80 1 40032U 14033Y 21364.60196093 .00001225 00000-0 13543-3 0 9999 2 40032 97.9284 291.9176 0010329 248.8369 111.1744 14.89224561408485 HODOYOSHI-1 1 40299U 14070B 21364.35865111 .00003288 00000-0 13285-3 0 9995 2 40299 97.2668 72.4764 0013417 23.3497 35.1193 15.25364791397271 FIREBIRD FU3 1 40377U 15003B 21364.48718823 .00011419 00000-0 39078-3 0 9993 2 40377 99.1123 187.3851 0111083 234.9613 124.1158 15.24688587382631 FIREBIRD FU4 1 40378U 15003C 21364.45611790 .00013857 00000-0 47208-3 0 9998 2 40378 99.1128 187.5234 0111113 234.8012 124.2777 15.24755757382632 GRIFEX 1 40379U 15003D 21364.47235894 .00008428 00000-0 32667-3 0 9999 2 40379 99.1138 175.1076 0123139 272.2471 86.4664 15.19661365381938 XW-2A 1 40903U 15049E 21364.39779892 .00011681 00000-0 22781-3 0 9995 2 40903 97.2104 58.2272 0012407 26.6343 103.5570 15.47584245353079 XW-2C 1 40906U 15049H 21364.40234694 .00003692 00000-0 18778-3 0 9990 2 40906 97.4915 4.4376 0012973 222.4346 247.4741 15.17398550347271 XW-2D 1 40907U 15049J 21364.42184119 .00004001 00000-0 20090-3 0 9994 2 40907 97.4906 4.3295 0012406 218.1994 280.9900 15.17806865347310 LILACSAT-2 1 40908U 15049K 21364.44627939 .00001858 00000-0 10342-3 0 9995 2 40908 97.5119 1.8988 0014059 239.5070 278.9132 15.14823564346895 XW-2E 1 40909U 15049L 21364.42755541 .00005831 00000-0 26843-3 0 9993 2 40909 97.4677 8.5896 0012131 198.9723 267.8591 15.20634370347707 XW-2F 1 40910U 15049M 21364.42962446 .00005758 00000-0 26895-3 0 9994 2 40910 97.4744 7.6916 0013149 200.2818 266.1796 15.20128394347487 XW-2B 1 40911U 15049N 21364.42978890 .00003826 00000-0 19276-3 0 9994 2 40911 97.4899 4.9860 0012333 219.2859 246.9065 15.17714379347201 DCBB 1 40912U 15049P 21364.42189946 .00006550 00000-0 28240-3 0 9999 2 40912 97.4432 12.0609 0014003 168.7320 301.1973 15.22811674348006 TW-1A 1 40928U 15051D 21364.35911530 .00018122 00000-0 33064-3 0 9991 2 40928 97.0612 24.7761 0006828 302.6497 182.4053 15.49458011351989 IO-86 1 40931U 15052B 21364.27242975 .00000984 00000-0 47794-4 0 9990 2 40931 6.0022 295.7775 0014038 296.1009 63.7767 14.76717303338294 ATHENOXAT-1 1 41168U 15077C 21363.98019547 .00008760 00000-0 39313-3 0 9991 2 41168 14.9871 262.2910 0010848 18.3511 84.3282 15.17078449334502 ChubuSat-2 1 41338U 16012B 21364.49256288 .00001343 00000-0 96572-4 0 9993 2 41338 31.0042 19.1347 0013570 276.8410 83.0681 15.00764642322075 ChubuSat-3 1 41339U 16012C 21364.43083456 .00001416 00000-0 10183-3 0 9997 2 41339 31.0127 16.5691 0013369 283.7279 76.1868 15.00893726322064 Horyu-4 1 41340U 16012D 21364.39108409 .00002441 00000-0 17380-3 0 9995 2 41340 31.0064 357.8400 0013581 318.9419 41.0195 15.02285165322279 e-st@r-II 1 41459U 16025D 21364.46474114 .00009926 00000-0 46257-3 0 9997 2 41459 98.1655 152.8871 0156922 121.4242 240.2422 15.09747278311979 AAUSAT4 1 41460U 16025E 21364.38519824 .00012640 00000-0 55225-3 0 9990 2 41460 98.1628 157.7521 0141160 101.9043 259.8008 15.13618360312327 LO-87 1 41557U 16033B 21364.53163115 .00007811 00000-0 26373-3 0 9997 2 41557 97.3916 97.5255 0010716 257.7516 198.1071 15.30900868311518 NuSat2 1 41558U 16033C 21364.52946551 .00007655 00000-0 24205-3 0 9998 2 41558 97.4067 102.3057 0009873 247.8156 239.0432 15.33033252311742 Lapan A3 1 41603U 16040E 21364.57061666 .00001000 00000-0 49036-4 0 9995 2 41603 97.2313 43.7719 0014597 39.8611 121.5890 15.20222607306378 Pratham 1 41783U 16059A 21364.59480888 .00000238 00000-0 54924-4 0 9991 2 41783 97.9389 47.7025 0033160 349.4733 10.5772 14.63209533280931 TY-1 1 41844U 16066D 21364.37375943 .00007297 00000-0 27974-3 0 9994 2 41844 97.3960 12.6248 0014673 159.5911 312.1654 15.26709865285783 CAS-2T 1 41847U 16066G 21364.59091170 .00000365 00000-0 65333-4 0 9999 2 41847 98.5766 64.2730 0364702 354.8945 4.8563 14.38314116270073 EO-88 1 42017U 17008BX 21364.12297288 .00009390 00000-0 32644-3 0 9998 2 42017 97.2948 68.1524 0006990 124.4238 235.7665 15.29917481271156 CAS-4B 1 42759U 17034B 21364.50474391 .00001701 00000-0 11410-3 0 9990 2 42759 43.0158 182.9442 0009190 308.2771 140.9827 15.10674974250795 CAS-4A 1 42761U 17034D 21364.54116383 .00001741 00000-0 11621-3 0 9999 2 42761 43.0159 181.6550 0009640 310.0601 88.3485 15.10761974250802 NIUSat 1 42766U 17036B 21364.54784468 .00004488 00000-0 18912-3 0 9992 2 42766 97.2268 43.5357 0014058 197.7339 162.3410 15.23737155251065 Aalto 1 1 42775U 17036L 21364.60298250 .00003839 00000-0 16345-3 0 9995 2 42775 97.2231 43.7135 0012646 195.9504 164.1337 15.23494247251055 URSA MAIOR 1 42776U 17036M 21364.36974100 .00004704 00000-0 19751-3 0 9990 2 42776 97.2245 44.0780 0012420 195.9180 164.1669 15.23852636251048 Max Valier Sat 1 42778U 17036P 21364.55669551 .00004248 00000-0 17499-3 0 9994 2 42778 97.2314 46.5540 0011027 195.8479 164.2415 15.24571594251154 Pegasus 1 42784U 17036V 21364.37542051 .00006389 00000-0 25363-3 0 9993 2 42784 97.2263 46.9871 0010424 198.3942 161.6921 15.25631168251213 NUDATSat 1 42787U 17036Y 21364.61960896 .00011039 00000-0 40230-3 0 9992 2 42787 97.2295 50.3657 0009369 188.0371 172.0720 15.28306781251272 SUCHAI 1 1 42788U 17036Z 21364.58632718 .00006692 00000-0 25714-3 0 9997 2 42788 97.2271 48.4662 0010069 193.2648 166.8328 15.26702832251398 SKCUBE 1 42789U 17036AA 21364.13105642 .00007358 00000-0 28577-3 0 9990 2 42789 97.2266 47.6325 0009949 195.5662 164.5272 15.26315266251222 VZLUSAT 1 1 42790U 17036AB 21364.35658471 .00010440 00000-0 38137-3 0 9998 2 42790 97.2300 50.0948 0009334 187.9358 172.1736 15.28242987251385 VENTA 1 1 42791U 17036AC 21364.38716641 .00006331 00000-0 24767-3 0 9994 2 42791 97.2263 47.8581 0009569 195.2730 164.8221 15.26133746251250 Robusta 1B 1 42792U 17036AD 21364.58996092 .00006721 00000-0 25886-3 0 9993 2 42792 97.2266 48.5400 0009595 193.4935 166.6049 15.26627808251332 D-SAT 1 42794U 17036AF 21364.49862222 .00002040 00000-0 17974-3 0 9991 2 42794 97.4538 13.9145 0123313 290.8381 67.9668 14.91882599246281 TechnoSat 1 42829U 17042E 21364.57233769 .00000879 00000-0 92994-4 0 9998 2 42829 97.4400 223.3747 0013313 206.8780 153.1751 14.91455486242919 QIKCOM-1 1 42983U 98067NF 21364.52471271 .00029666 00000-0 21604-3 0 9996 2 42983 51.6351 339.4523 0003514 33.7109 326.4113 15.73047803238195 AO-91 1 43017U 17073E 21364.49661245 .00003490 00000-0 26959-3 0 9996 2 43017 97.6925 260.5652 0253667 20.7335 340.3948 14.80099359222117 PICSAT 1 43132U 18004X 21364.19667047 .00008005 00000-0 30161-3 0 9999 2 43132 97.3926 76.9387 0007345 231.2827 128.7756 15.27327009220540 AO-92 1 43137U 18004AC 21364.49620893 .00005583 00000-0 21715-3 0 9998 2 43137 97.3898 76.4402 0007051 233.3668 126.6922 15.26409099220558 TianYi 2 1 43155U 18008A 21364.45136748 .00004282 00000-0 24365-3 0 9998 2 43155 97.3790 63.3413 0017446 16.1525 77.7918 15.13241669217701 Zhou Enlai 1 43156U 18008B 21364.43897554 .00004828 00000-0 27721-3 0 9991 2 43156 97.3837 63.1746 0014632 17.5916 103.5071 15.12898459217638 TianYi 6 1 43158U 18008D 21364.11855206 .00003546 00000-0 20861-3 0 9990 2 43158 97.3774 61.1441 0014080 17.9900 37.7899 15.12199734217506 S-Net D 1 43186U 18014G 21364.51600258 .00000468 00000-0 45316-4 0 9990 2 43186 97.6690 268.4533 0011548 138.2806 221.9298 14.97304081213634 S-Net B 1 43187U 18014H 21364.38234470 .00000581 00000-0 54985-4 0 9993 2 43187 97.6686 268.2810 0011558 138.6596 221.5503 14.97303734213614 S-Net A 1 43188U 18014J 21364.51619563 .00000465 00000-0 45010-4 0 9999 2 43188 97.6689 268.4665 0011547 138.3343 221.8760 14.97302336213630 S-Net C 1 43189U 18014K 21364.51672684 .00000465 00000-0 45053-4 0 9990 2 43189 97.6684 268.4037 0011536 138.2894 221.9210 14.97301254212185 FMN 1 1 43192U 18015A 21364.53063314 .00014527 00000-0 49129-3 0 9992 2 43192 97.5122 141.5081 0012127 269.9658 154.3570 15.30662586217552 Shaonian Xing 1 43199U 18015H 21364.52970799 .00009640 00000-0 34058-3 0 9997 2 43199 97.4905 137.8467 0013539 281.1928 141.0889 15.29331982217598 SurfSat 1 43614U 18070B 21364.60540339 .00014456 00000-0 30356-3 0 9990 2 43614 93.0216 27.8207 0011193 332.8693 27.1978 15.45261754184924 CP-7 DAVE 1 43615U 18070C 21364.60201610 .00013972 00000-0 29770-3 0 9997 2 43615 93.0219 27.7430 0011510 333.1765 26.8896 15.44831826184907 ELFIN-B 1 43616U 18070D 21364.60153767 .00022292 00000-0 39950-3 0 9993 2 43616 93.0166 28.2656 0010108 327.3631 32.7003 15.49824589185094 ELFIN-A 1 43617U 18070E 21364.54760087 .00024695 00000-0 43013-3 0 9990 2 43617 93.0224 29.3032 0009252 324.1631 35.9008 15.50633630185113 CubeBel-1 1 43666U 18083E 21364.53104563 .00006175 00000-0 28592-3 0 9996 2 43666 97.4394 30.3553 0013403 198.5757 317.9893 15.20396806175794 Changshagaoxin 1 43669U 18083H 21364.54964153 .00005237 00000-0 25247-3 0 9991 2 43669 97.4322 26.8575 0009765 192.2946 319.0406 15.19104874175646 Ten-Koh 1 43677U 18084G 21364.34368033 .00000807 00000-0 88036-4 0 9998 2 43677 97.9424 128.1917 0017313 107.7850 252.5258 14.90645925172482 PO-101 1 43678U 18084H 21364.44481959 .00000483 00000-0 53517-4 0 9999 2 43678 97.9472 131.0518 0011120 119.5625 240.6717 14.91866635172658 IRVINE 01 1 43693U 18088D 21364.58936299 .00013451 00000-0 48097-3 0 9992 2 43693 85.0334 64.3374 0015715 28.0347 332.1741 15.28561056174361 QO-100 1 43700U 18090A 21364.50875178 .00000160 00000-0 00000-0 0 9996 2 43700 0.0172 344.6869 0001924 329.1499 354.2814 1.00271951 11330 Reaktor Hello World 1 43743U 18096AA 21364.21015766 .00007391 00000-0 25457-3 0 9995 2 43743 97.3711 80.2046 0015163 305.4673 54.5152 15.30218363172054 MinXSS-2 1 43758U 18099A 21364.51986012 .00001578 00000-0 14386-3 0 9998 2 43758 97.6469 71.4577 0016581 111.2590 249.0404 14.96422264167839 AO-95 1 43770U 18099N 21364.16434593 .00001129 00000-0 10646-3 0 9992 2 43770 97.6446 69.8247 0015647 120.1940 240.0834 14.95638937167702 RANGE-B 1 43772U 18099Q 21364.41585863 .00002762 00000-0 25048-3 0 9995 2 43772 97.6551 71.3938 0015692 107.5703 252.7234 14.96041906167756 RANGE-A 1 43773U 18099R 21364.18842137 .00001321 00000-0 12435-3 0 9996 2 43773 97.6373 68.9599 0014859 108.9376 251.3457 14.95445846167694 MOVE-II 1 43780U 18099Y 21364.50468390 .00002083 00000-0 18831-3 0 9997 2 43780 97.6475 70.9510 0014383 115.8416 244.4291 14.96435343167786 SNUSat 2 1 43782U 18099AA 21364.16672601 .00000939 00000-0 89004-4 0 9992 2 43782 97.6448 70.2362 0014004 106.9965 253.2792 14.95857261167720 SnugLite 1 43784U 18099AC 21364.42491084 .00001393 00000-0 12890-3 0 9990 2 43784 97.6411 70.1648 0016341 113.1378 247.1567 14.96008917167787 ITASat 1 1 43786U 18099AE 21364.18116535 .00001126 00000-0 10555-3 0 9990 2 43786 97.6466 70.6546 0016307 114.1713 246.1215 14.95888766167749 EAGLET 1 1 43790U 18099AJ 21364.43917043 .00000649 00000-0 62518-4 0 9992 2 43790 97.6460 71.3936 0014577 115.9581 244.3144 14.96200762167519 ESEO 1 43792U 18099AL 21364.39257473 .00000735 00000-0 70707-4 0 9998 2 43792 97.6416 70.7681 0014627 114.0996 246.1757 14.95872109167551 CSIM 1 43793U 18099AM 21364.41954583 .00003010 00000-0 26533-3 0 9994 2 43793 97.6483 71.5806 0014554 109.1241 251.1558 14.97108342167582 Astrocast 0.1 1 43798U 18099AS 21364.15442798 .00002693 00000-0 24140-3 0 9998 2 43798 97.6481 71.4066 0014023 97.8206 262.4608 14.96545305167783 JO-97 1 43803U 18099AX 21364.17612894 .00001351 00000-0 12462-3 0 9997 2 43803 97.6427 70.3868 0016175 113.5879 246.7043 14.96202942167752 Suomi 100 1 43804U 18099AY 21364.45383892 .00001574 00000-0 14449-3 0 9996 2 43804 97.6422 70.6058 0016350 113.2424 247.0521 14.96156021167807 Al Farabi 2 1 43805U 18099AZ 21364.35453795 .00002983 00000-0 26700-3 0 9994 2 43805 97.6442 70.8440 0016789 112.7676 247.5329 14.96478905167805 CHOMPTT 1 43855U 18104G 21364.53263163 .00005494 00000-0 21779-3 0 9995 2 43855 85.0360 163.4930 0017865 136.9346 223.3300 15.24995548168969 ISAT 1 43879U 18111D 21364.53715072 .00001716 00000-0 15386-3 0 9990 2 43879 97.6742 268.2199 0012864 160.8858 199.2845 14.97010209162383 UWE-4 1 43880U 18111E 21364.29479939 .00002463 00000-0 21749-3 0 9994 2 43880 97.6788 268.5767 0012540 159.6300 200.5425 14.97233343164386 Sparrow 1 43881U 18111F 21364.45768128 .00001513 00000-0 13528-3 0 9995 2 43881 97.6791 268.9123 0012400 159.4259 200.7465 14.97306144164417 Lume 1 1 43908U 18111AJ 21364.49836902 .00006550 00000-0 24561-3 0 9990 2 43908 97.2126 252.7806 0018635 320.2069 39.7803 15.27409294167588 FO-98 1 43933U 19003B 21364.05327942 .00058926 00000-0 16515-2 0 9993 2 43933 97.1624 38.8854 0014030 58.4518 301.8095 15.36299754164028 FO-99 1 43937U 19003F 21364.60815201 .00006015 00000-0 22713-3 0 9998 2 43937 97.1541 39.8048 0023442 39.9495 320.3464 15.27105981164182 MYSat 1 1 44045U 18092F 21364.52935696 .00019101 00000-0 42656-3 0 9996 2 44045 51.6343 187.2692 0010015 196.3948 163.6716 15.43505338161705 AstroCast 0.2 1 44083U 19018F 21364.48421965 .00005073 00000-0 21287-3 0 9991 2 44083 97.3495 61.7414 0012464 11.7159 348.4366 15.23850077152732 AISTechSat 3 1 44103U 19018AB 21364.53893861 .00005371 00000-0 21733-3 0 9995 2 44103 97.3351 62.2385 0013384 19.8153 87.6431 15.25037690152885 AISat 1 1 44104U 19018AC 21364.23007089 .00004611 00000-0 14001-3 0 9998 2 44104 97.4114 81.9570 0055798 19.6431 340.6943 15.33053997153653 Prox-1 1 44339U 19036A 21364.61696397 .00002114 00000-0 44232-3 0 9991 2 44339 23.9989 178.3634 0010619 168.0391 192.0354 14.54037946133747 Oculus-ASR 1 44348U 19036K 21364.16950422 .00026136 00000-0 32135-3 0 9992 2 44348 28.5115 264.6859 0298965 236.6123 120.5530 15.20274367138633 Armadillo 1 44352U 19036P 21363.97973010 .00042869 -60017-5 43104-3 0 9992 2 44352 28.5281 225.4079 0249466 298.1790 59.3820 15.33322452138966 NO-104 1 44354U 19036R 21364.04648326 .00025687 00000-0 30507-3 0 9994 2 44354 28.5286 255.5845 0292919 248.8318 108.0741 15.22167065138719 NO-103 1 44355U 19036S 21364.61769356 .00091641 -42161-5 69260-3 0 9996 2 44355 28.5217 164.4336 0190174 37.2255 324.1366 15.50520838139679 Move-IIb 1 44398U 19038N 21364.57698067 .00007630 00000-0 40920-3 0 9997 2 44398 97.6040 328.1426 0023902 356.7131 3.3928 15.15009118137449 SONATE 1 44400U 19038Q 21364.56702908 .00003468 00000-0 19813-3 0 9992 2 44400 97.6151 327.7838 0024785 358.6124 1.5031 15.13137776137389 BeeSat 9 1 44412U 19038AC 21364.40951603 .00005142 00000-0 28338-3 0 9999 2 44412 97.6142 328.0825 0021750 3.4706 356.6672 15.14252923137098 JAISAT-1 1 44419U 19038F 21364.44871181 .00005860 00000-0 31822-3 0 9991 2 44419 97.6147 328.8248 0020578 1.2850 358.8431 15.14739023137458 LightSail-2 1 44420U 19036AC 21364.53717881 .00022540 00000-0 41987-2 0 9993 2 44420 24.0042 143.8137 0012142 245.6622 114.2604 14.63578573132207 Taurus 1 1 44530U 19059C 21364.45493519 .00001682 00000-0 48050-3 0 9993 2 44530 98.5496 96.4813 0012654 267.4985 92.4758 14.46395766121414 Duchifat 3 1 44854U 19089C 21364.47585971 .00002547 00000-0 20746-3 0 9994 2 44854 36.9674 21.0960 0008965 287.9480 72.0287 14.99928789112541 OPS-SAT 1 44878U 19092F 21364.57362086 .00005195 00000-0 26261-3 0 9995 2 44878 97.4740 185.3670 0012689 202.7970 157.2702 15.17424722112561 TO-108 1 44881U 19093C 21364.47095705 .00000371 00000-0 53987-4 0 9997 2 44881 97.9099 81.0105 0015666 20.9991 339.1863 14.81533965109759 FloripaSat 1 1 44885U 19093G 21364.30402496 .00001252 00000-0 16216-3 0 9994 2 44885 97.9127 81.7530 0015102 28.8159 331.3883 14.82539408109780 RS-44 1 44909U 19096E 21364.47382601 .00000022 00000-0 46887-4 0 9999 2 44909 82.5217 342.5606 0217395 355.1346 4.7639 12.79711894 93890 Phoenix 1 45258U 98067RB 21364.39323614 .00039985 00000-0 41943-3 0 9999 2 45258 51.6375 64.2826 0004465 282.1205 77.9289 15.63956027105787 QARMAN 1 45263U 98067RG 21364.48536928 .00205463 00000-0 83376-3 0 9991 2 45263 51.6321 43.7707 0005577 354.4883 5.6058 15.85105363106128 Quetzal 1 1 45598U 98067RL 21364.50304535 .00133010 00000-0 77853-3 0 9993 2 45598 51.6366 52.9972 0004350 11.6084 348.5016 15.77407911 95278 BY70-2 1 45857U 20042B 21364.45205069 .00004191 00000-0 59015-3 0 9992 2 45857 97.9714 78.1082 0009482 303.7419 56.2882 14.77800823 80485 UPMSat 2 1 46276U 20061E 21364.36706483 .00002476 00000-0 12885-3 0 9993 2 46276 97.4142 74.0378 0002809 67.8144 292.3388 15.16946791 73231 AmicalSat 1 46287U 20061R 21364.43147184 .00003054 00000-0 18619-3 0 9994 2 46287 97.4691 73.2498 0003902 124.2654 235.8946 15.11089025 72936 SALSAT 1 46495U 20068K 21364.58276698 .00002042 00000-0 15292-3 0 9991 2 46495 97.7095 301.1227 0017320 125.0016 235.2840 15.03746633 68805 BY70-3 1 46839U 20079N 21364.46517222 .00012017 00000-0 34594-3 0 9992 2 46839 97.2217 74.4573 0005760 210.4464 273.9545 15.35893139 64269 SPOC 1 46921U 98067RR 21364.46370881 .00036614 00000-0 42620-3 0 9992 2 46921 51.6399 74.5975 0001519 58.6515 301.4628 15.61329268 65402 Bobcat-1 1 46922U 98067RS 21364.44524485 .00074332 00000-0 65956-3 0 9998 2 46922 51.6413 68.5090 0001778 27.1482 332.9607 15.67883775 65446 Neutron-1 1 46923U 98067RT 21364.49549613 .00037536 00000-0 43845-3 0 9992 2 46923 51.6404 74.8117 0001271 71.1327 288.9804 15.61226607 65439 CAPE 3 1 47309U 21002A 21364.31398485 .00005635 00000-0 25360-3 0 9993 2 47309 60.6848 279.1854 0034329 153.0249 207.2632 15.21896910 52683 AO-109 1 47311U 21002C 21364.24663390 .00005204 00000-0 23035-3 0 9997 2 47311 60.6863 277.7690 0031254 147.5272 212.7746 15.22697079 52675 MiTEE 1 1 47314U 21002F 21364.28161574 .00009200 00000-0 37052-3 0 9995 2 47314 60.6855 274.4395 0033606 138.9634 221.3992 15.25032615 52754 ExoCube 2 1 47319U 21002L 21364.46272614 .00004632 00000-0 20862-3 0 9993 2 47319 60.6848 277.6507 0031519 151.6087 208.6725 15.22309881 52667 UVSQ-SAT 1 47438U 21006AB 21364.41884970 .00003495 00000-0 19656-3 0 9993 2 47438 97.4639 61.9288 0013650 136.0789 224.1530 15.13846802 51695 YUSAT 1 1 47439U 21006AC 21364.41617628 .00004090 00000-0 22872-3 0 9994 2 47439 97.4646 61.9459 0013474 136.2776 223.9525 15.13953566 51693 SOMP 2b 1 47445U 21006AJ 21364.38980841 .00004013 00000-0 22647-3 0 9992 2 47445 97.4612 61.6904 0013182 139.8751 220.3457 15.13643853 51682 IDEASSat 1 47458U 21006AX 21364.55273480 .00002825 00000-0 16117-3 0 9993 2 47458 97.4703 62.1874 0012411 137.0235 223.1968 15.13505459 51700 RSP-01 1 47925U 98067SB 21364.44961335 .00040270 00000-0 51055-3 0 9990 2 47925 51.6413 82.7438 0002105 23.2238 336.8850 15.59041434 45265 TAUSAT-1 1 47926U 98067SC 21364.51342527 .00055354 00000-0 62704-3 0 9997 2 47926 51.6399 80.1520 0002970 20.3829 339.7283 15.61847081 45297 Tsuru 1 47927U 98067SD 21364.44620641 .00035624 00000-0 46928-3 0 9994 2 47927 51.6404 83.4699 0002124 25.8376 334.2722 15.58081712 45257 STARS-EC 1 47928U 98067SE 21364.44921779 .00065310 00000-0 72793-3 0 9995 2 47928 51.6403 81.2262 0002877 105.2011 254.9301 15.62196532 45267 Maya-2 1 47929U 98067SF 21364.50596613 .00036761 00000-0 48387-3 0 9998 2 47929 51.6406 83.1162 0002209 22.4697 337.6392 15.58087774 45227 OPUSAT-II 1 47930U 98067SG 21364.42496354 .00069030 00000-0 74444-3 0 9990 2 47930 51.6398 80.3261 0002742 4.9166 355.1855 15.63020880 45293 GuaraniSat-1 1 47931U 98067SH 21364.43771879 .00035874 00000-0 47156-3 0 9999 2 47931 51.6412 83.4165 0002174 23.4680 336.6411 15.58135673 45253 CubeSX-Sirius-HSE 1 47951U 21022V 21364.55708397 .00003332 00000-0 23063-3 0 9991 2 47951 97.5443 262.6320 0022193 6.6423 114.1301 15.06168133 42561 CubeSX-HSE 1 47952U 21022W 21364.48019868 .00003637 00000-0 25102-3 0 9996 2 47952 97.5448 262.5672 0021921 6.7515 97.2647 15.06211203 42557 KSU-Cubesat 1 47954U 21022Y 21364.37784002 .00002933 00000-0 20269-3 0 9992 2 47954 97.5460 262.5174 0021675 8.0443 352.1127 15.06329609 42265 GRBAlpha 1 47959U 21022AD 21364.48023723 .00003642 00000-0 25134-3 0 9999 2 47959 97.5444 262.5891 0021958 7.0513 97.7949 15.06219597 41378 Orbicraft-Zorkiy 1 47960U 21022AE 21364.40549628 .00003376 00000-0 23281-3 0 9995 2 47960 97.5471 262.5904 0021671 7.8316 123.6731 15.06301573 42056 STECCO 1 47962U 21022AG 21364.53149483 .00004781 00000-0 31743-3 0 9999 2 47962 97.5430 263.0529 0016823 4.7354 117.9700 15.07581154 41409 DO-111 1 47963U 21022AH 21364.25645446 .00009830 00000-0 62515-3 0 9990 2 47963 97.5462 263.1107 0019238 0.9499 359.1763 15.08860783 41407 MO-110 1 47964U 21022AJ 21364.39153315 .00004826 00000-0 31749-3 0 9990 2 47964 97.5450 263.0610 0019635 1.0061 359.1204 15.07878070 41396 FEES 1 48082U 21022AL 21364.26663288 .00006690 00000-0 44161-3 0 9996 2 48082 97.5460 262.8075 0015885 359.2654 0.8548 15.07663444 41073 RamSat 1 48850U 98067SL 21364.54424048 .00022826 00000-0 34868-3 0 9994 2 48850 51.6415 87.8404 0003423 142.5664 217.5566 15.54312551 30951 MO-112 1 48868U 98067SP 21364.51537930 .00060566 00000-0 73611-3 0 9997 2 48868 51.6396 85.3955 0000579 126.9288 233.1759 15.59978211 29760 TUBIN 1 48900U 21059X 21364.47977337 .00002885 00000-0 16876-3 0 9995 2 48900 97.5317 130.5950 0009605 334.5519 90.2219 15.12627657 28362 IT-SPINS 1 49017U 21013G 21364.50653034 .00005992 00000-0 26008-3 0 9994 2 49017 51.5903 126.2308 0006909 174.2177 185.8881 15.23650268 28008 LEDSAT 1 49069U 21073D 21364.44169617 .00002245 00000-0 15089-3 0 9994 2 49069 97.5452 75.6865 0028718 150.3429 209.9435 15.07454781 20364 CUTE 1 49263U 21088D 21364.42390923 .00002097 00000-0 16491-3 0 9993 2 49263 97.6058 70.7178 0018046 282.9992 76.9218 15.01822445 14045 Binar-1 1 49272U 98067SR 21364.49909069 .00021780 00000-0 35297-3 0 9993 2 49272 51.6415 90.5250 0005133 43.6526 316.4869 15.52696952 13301 Maya-3 1 49273U 98067SS 21364.54931737 .00027685 00000-0 43647-3 0 9995 2 49273 51.6411 90.1103 0004974 39.2505 320.8846 15.53317000 13311 Maya-4 1 49274U 98067ST 21364.55196331 .00027036 00000-0 42745-3 0 9998 2 49274 51.6412 90.1278 0004880 38.0888 322.0447 15.53252820 13312 CUAVA-1 1 49275U 98067SU 21364.50053836 .00028668 00000-0 45353-3 0 9996 2 49275 51.6426 90.3384 0004696 52.1191 37.5352 15.53203142 13256 TeikyoSat 4 1 49396U 21102B 21364.56962493 .00000645 00000-0 56001-4 0 9998 2 49396 97.5548 62.6653 0018271 97.1767 263.1535 15.00280115 7729 Z-Sat 1 49399U 21102E 21364.51172649 .00001419 00000-0 11224-3 0 9999 2 49399 97.5645 62.7633 0021491 84.0804 276.2869 15.02019305 7722 KOSEN 1 1 49402U 21102H 21364.48132429 .00000640 00000-0 51863-4 0 9991 2 49402 97.5561 62.7715 0024788 75.6003 284.7971 15.02898096 7724 XW 3 1 50466U 21131B 21364.42242782 .00000154 00000-0 65159-4 0 9996 2 50466 98.5977 76.6444 0003413 292.8070 67.2754 14.38435491 618 /EX SB KEPS @ AMSAT $ORB21364.N 2Line Orbital Elements 21364.AMSAT
